KUIPER-00109

导读

KUIPER-00109是美国亚马逊“柯伊伯计划”星座中的一颗近地轨道互联网卫星,于2025年8月11日发射升空。该卫星属于柯伊伯第一代星座,该星座计划部署超3200颗卫星,旨在提供高速低延迟的全球卫星宽带服务,挑战星链主导的卫星互联网市场。KUIPER-00109配备多用户波束相控阵天线,可根据区域需求灵活分配容量,依靠商用硬件降低成本,助力亚马逊推进全球宽带覆盖目标。

Basic Information
目录编号:
65147
目录名称:
KUIPER-00109
国际标识:
2025-171R
轨道中心:
EARTH
卫星名称:
KUIPER-00109
卫星全名:
KUIPER-00109
卫星状态:
在轨 (已飞行390 天)
发射日期:
2025-08-11 UTC
国别 :
美国 (US)
星等 :
--
Orbit Information
数据来源 国际轨道数据
星历时间: 2026-09-05T13:48:19+0800
7小时前
查看轨道信息
半长轴: 7007.62km
偏心率: 0.0000245
轨道倾角: 51.904°
近地点辐角 99.628°
升交点赤经 81.604°
平近点角 260.471°
近地点: 629.311km
远地点: 629.655km
周期: 97.301分钟
每日圈数: 14.799497
Detailed Information
使用方式:
暂无
2D Orbit Map
3D Orbit Map
Orbit Altitude Analysis Chart
Orbit Inclination Analysis Chart
Orbit Comprehensive Analysis Chart
View Comprehensive Chart
Conjunction Data List
Event ID Objects TCA Miss Dist (km) Collision Risk Probability Collision Risk Index (CRI) Action
CDM_260906-012106-008406-514721
2026-09-06T
01:21:57+0000
1.326 km
极远距离
1.00174E-5 中风险 0.55
CDM_260906-181804-335306-514721
2026-09-06T
18:18:09+0000
2.775 km
极远距离
1.390877E-6 低风险 0.38